NIMBUS 2 DEB, 28619

Orbit data source: Space-Track

NIMBUS 2 DEB, 28619 is space debris in SSO originally from a launch on Sun, 15 May 1966 UTC launched from the Air Force Western Test Range (AFWTR). Debris objects in space refer to the collection of defunct objects orbiting the Earth. Examples of debris include non-operational satellites, rocket bodies, and fragments generated from explosions, collisions, or faulty payload assembly.

Loading next visibility...
Identifier
28619, 1966-040AJ
Orbit
SSO
Country
Flag of USUS
Related business
Manufacturer
Unknown
Mission
Spacecraft
Bus & Motor
Unknown
Mass
Unknown
Launch date (UTC)
1966-05-15 (60 years ago)
Launch vehicle
Unknown
Launch site
Air Force Western Test Range (AFWTR)
Object type
Payload
Rocket body
Debris
Shape & HBR
Unknown shape, 0.1 m
Radar Cross Section
Small (<0.1 m²)

Expand to show TLE details & history
Last TLE update: 3 days ago

TLE from 3 days ago
0 NIMBUS 2 DEB
1 28619U 66040AJ  26170.29835606  .00003725  00000-0  30479-2 0  9999
2 28619 100.3104 352.8764 0027015 240.2756 298.2097 13.90108132585130
Epoch: 2026-06-19T07:09Z
TLE epoch observation values (Epoch: 2026-06-19T07:09:37.963Z)
Latitude
1.65545°
Longitude
158.23855°
Altitude
921.58 km
Speed
7.396 km/s
True Right ascension
11h 32m 42s
True Declination
1° 38' 45"
Sunlit
Object was in daylight at epoch
Visualization orbit readout
Latitude
Unknown
Longitude
Unknown
Altitude
Unknown
Speed
Unknown
Apparent Right ascension
Unknown
Apparent Declination
Unknown
Sunlit
N/A
Visualization observer readout
Local Sidereal Time
23:18:21
Azimuth
Unknown
Elevation
Unknown
Doppler factor
Unknown
Orbital elements
Apogee altitude
945.264 km
Perigee altitude
905.802 km
Semi-major axis
7,303.67 km
Eccentricity
0.0027
Inclination
100.3104°
RAAN
352.8764°
Arg. of periapsis
240.2756°
True anomaly
297.93647°
Mean anomaly
298.2097°
Eccentric anomaly
298.07313°
Mean motion
3.47721 °/min
Orbital period
103.53 mins
BSTAR
0.0030479
Loading maneuver chart data...
Computing Atmospheric mass density...
Loading historical data...
Loading historical data...
Loading historical data...
Loading historical data...
Loading historical data...
Loading historical data...
Loading historical data...

Documentation

Showing up to 5 results
|